Time,TemperatureF,DewpointF,PressureIn,WindDirection,WindDirectionDegrees,WindSpeedMPH,WindSpeedGustMPH,Humidity,HourlyPrecipIn,Conditions,Clouds,dailyrainin,SoftwareType,DateUTC
2013-07-13 12:44:00,76.6,66.7,30.10,NNE,23,4.6,8.9,71,0.00,,,0.00,WUHU216TE923,2013-07-13 16:44:00,
2013-07-13 12:45:00,76.6,66.7,30.10,NNE,23,4.6,8.9,71,0.00,,,0.00,WUHU216TE923,2013-07-13 16:45:00,
2013-07-13 12:50:00,77.2,67.3,30.10,ENE,68,5.0,8.9,71,0.00,,,0.00,WUHU216TE923,2013-07-13 16:50:00,
2013-07-13 12:55:00,77.4,67.5,30.10,ENE,68,3.8,5.0,71,0.00,,,0.00,WUHU216TE923,2013-07-13 16:55:00,
2013-07-13 13:00:00,77.0,67.1,30.09,North,0,2.2,3.9,71,0.00,,,0.00,WUHU216TE923,2013-07-13 17:00:00,
2013-07-13 13:05:00,77.2,66.9,30.09,NNE,23,2.5,4.5,70,0.00,,,0.00,WUHU216TE923,2013-07-13 17:05:00,
2013-07-13 13:10:00,77.7,67.3,30.09,NE,45,3.0,4.5,70,0.00,,,0.00,WUHU216TE923,2013-07-13 17:10:00,
2013-07-13 13:15:00,77.9,67.9,30.09,North,0,2.4,3.0,71,0.00,,,0.00,WUHU216TE923,2013-07-13 17:15:00,
2013-07-13 13:20:00,78.4,68.4,30.09,ENE,68,2.3,3.4,71,0.00,,,0.00,WUHU216TE923,2013-07-13 17:20:00,
2013-07-13 13:25:00,79.0,68.6,30.09,ENE,68,2.5,3.9,70,0.00,,,0.00,WUHU216TE923,2013-07-13 17:25:00,
2013-07-13 13:30:00,79.3,68.9,30.09,NNE,23,2.8,6.1,70,0.00,,,0.00,WUHU216TE923,2013-07-13 17:30:00,
2013-07-13 13:35:00,79.5,69.5,30.09,NNE,23,2.8,6.1,71,0.00,,,0.00,WUHU216TE923,2013-07-13 17:35:00,
2013-07-13 13:40:00,79.9,67.8,30.08,East,90,3.0,4.7,66,0.00,,,0.00,WUHU216TE923,2013-07-13 17:40:00,
2013-07-13 13:45:00,79.9,68.2,30.08,NNE,23,3.1,4.7,67,0.00,,,0.00,WUHU216TE923,2013-07-13 17:45:00,
2013-07-13 13:50:00,80.4,67.4,30.08,NNE,23,4.0,6.7,64,0.00,,,0.00,WUHU216TE923,2013-07-13 17:50:00,
2013-07-13 13:55:00,80.2,66.7,30.08,ENE,68,4.8,6.7,63,0.00,,,0.00,WUHU216TE923,2013-07-13 17:55:00,
2013-07-13 14:00:00,80.1,66.1,30.09,NNE,23,5.0,6.5,62,0.00,,,0.00,WUHU216TE923,2013-07-13 18:00:00,
2013-07-13 14:05:00,79.7,65.3,30.09,East,90,4.8,5.6,61,0.00,,,0.00,WUHU216TE923,2013-07-13 18:05:00,
2013-07-13 14:10:00,79.2,65.3,30.09,East,90,4.0,5.6,62,0.00,,,0.00,WUHU216TE923,2013-07-13 18:10:00,
2013-07-13 14:15:00,79.0,65.6,30.09,East,90,3.5,4.0,63,0.00,,,0.00,WUHU216TE923,2013-07-13 18:15:00,
2013-07-13 14:20:00,78.4,65.9,30.09,NNE,23,2.4,4.0,65,0.00,,,0.00,WUHU216TE923,2013-07-13 18:20:00,
2013-07-13 14:25:00,78.4,66.3,30.09,NNE,23,2.7,4.1,66,0.00,,,0.00,WUHU216TE923,2013-07-13 18:25:00,
2013-07-13 14:30:00,78.4,66.8,30.09,NE,45,2.9,4.1,67,0.00,,,0.00,WUHU216TE923,2013-07-13 18:30:00,
2013-07-13 14:35:00,78.3,66.7,30.09,NNE,23,2.8,3.2,67,0.00,,,0.00,WUHU216TE923,2013-07-13 18:35:00,
2013-07-13 14:40:00,78.1,66.9,30.09,ENE,68,2.5,3.1,68,0.00,,,0.00,WUHU216TE923,2013-07-13 18:40:00,
2013-07-13 14:45:00,77.9,66.7,30.09,NNE,23,2.4,3.3,68,0.00,,,0.00,WUHU216TE923,2013-07-13 18:45:00,
2013-07-13 14:50:00,77.7,66.5,30.09,NNE,23,2.8,3.9,68,0.00,,,0.00,WUHU216TE923,2013-07-13 18:50:00,
2013-07-13 14:55:00,77.9,67.1,30.09,NE,45,2.8,3.9,69,0.00,,,0.00,WUHU216TE923,2013-07-13 18:55:00,
2013-07-13 15:00:00,77.9,67.1,30.07,NNE,23,2.4,2.8,69,0.00,,,0.00,WUHU216TE923,2013-07-13 19:00:00,
2013-07-13 15:05:00,77.7,67.3,30.07,East,90,2.1,3.3,70,0.00,,,0.00,WUHU216TE923,2013-07-13 19:05:00,
2013-07-13 15:10:00,77.4,67.1,30.07,NE,45,2.1,3.3,70,0.00,,,0.00,WUHU216TE923,2013-07-13 19:10:00,
2013-07-13 15:15:00,77.2,66.9,30.07,NNE,23,2.1,2.7,70,0.00,,,0.00,WUHU216TE923,2013-07-13 19:15:00,
2013-07-13 15:20:00,77.0,67.1,30.09,East,90,2.4,2.4,71,0.00,,,0.00,WUHU216TE923,2013-07-13 19:20:00,
2013-07-13 15:25:00,76.8,66.9,30.09,WNW,293,2.7,2.7,71,0.00,,,0.00,WUHU216TE923,2013-07-13 19:25:00,
2013-07-13 15:30:00,76.8,67.3,30.09,NNE,23,2.8,2.9,72,0.00,,,0.00,WUHU216TE923,2013-07-13 19:30:00,
2013-07-13 15:35:00,76.5,67.4,30.09,ENE,68,2.8,2.9,73,0.00,,,0.00,WUHU216TE923,2013-07-13 19:35:00,
2013-07-13 15:40:00,76.1,67.4,30.08,SSW,203,2.6,3.0,74,0.00,,,0.00,WUHU216TE923,2013-07-13 19:40:00,
2013-07-13 15:45:00,75.9,67.6,30.08,ESE,113,2.6,3.0,75,0.00,,,0.00,WUHU216TE923,2013-07-13 19:45:00,
2013-07-13 15:50:00,75.7,68.1,30.08,NNE,23,2.8,3.3,77,0.00,,,0.00,WUHU216TE923,2013-07-13 19:50:00,
2013-07-13 15:55:00,75.6,68.0,30.08,NE,45,2.9,3.7,77,0.00,,,0.00,WUHU216TE923,2013-07-13 19:55:00,
2013-07-13 16:00:00,75.4,67.5,30.08,East,90,3.2,3.9,76,0.00,,,0.00,WUHU216TE923,2013-07-13 20:00:00,
2013-07-13 16:05:00,75.2,67.3,30.08,ENE,68,3.3,5.5,76,0.00,,,0.00,WUHU216TE923,2013-07-13 20:05:00,
2013-07-13 16:10:00,75.0,65.9,30.08,NE,45,3.0,5.5,73,0.00,,,0.00,WUHU216TE923,2013-07-13 20:10:00,
2013-07-13 16:15:00,75.0,66.3,30.08,East,90,2.8,3.0,74,0.00,,,0.00,WUHU216TE923,2013-07-13 20:15:00,
2013-07-13 16:20:00,75.4,66.7,30.06,NE,45,3.1,3.9,74,0.00,,,0.00,WUHU216TE923,2013-07-13 20:20:00,
2013-07-13 16:25:00,75.6,66.9,30.06,NNE,23,4.0,4.0,74,0.00,,,0.00,WUHU216TE923,2013-07-13 20:25:00,
2013-07-13 16:30:00,75.4,66.7,30.06,NNE,23,5.2,10.4,74,0.00,,,0.00,WUHU216TE923,2013-07-13 20:30:00,
2013-07-13 16:35:00,75.7,67.0,30.06,NNE,23,5.7,10.4,74,0.00,,,0.00,WUHU216TE923,2013-07-13 20:35:00,
2013-07-13 16:40:00,75.9,66.8,30.06,ENE,68,4.3,5.7,73,0.00,,,0.00,WUHU216TE923,2013-07-13 20:40:00,
2013-07-13 16:45:00,76.1,67.0,30.06,NNE,23,3.4,6.5,73,0.00,,,0.00,WUHU216TE923,2013-07-13 20:45:00,
2013-07-13 16:50:00,76.1,67.4,30.06,North,0,4.4,7.6,74,0.00,,,0.00,WUHU216TE923,2013-07-13 20:50:00,
2013-07-13 16:55:00,76.3,67.2,30.06,NE,45,4.4,7.6,73,0.00,,,0.00,WUHU216TE923,2013-07-13 20:55:00,
2013-07-13 17:00:00,76.1,67.0,30.06,NE,45,5.5,7.5,73,0.00,,,0.00,WUHU216TE923,2013-07-13 21:00:00,
2013-07-13 17:05:00,76.1,67.0,30.06,NNE,23,5.4,7.5,73,0.00,,,0.00,WUHU216TE923,2013-07-13 21:05:00,
2013-07-13 17:10:00,76.1,67.0,30.06,NNE,23,4.2,5.4,73,0.00,,,0.00,WUHU216TE923,2013-07-13 21:10:00,
2013-07-13 17:15:00,76.1,66.6,30.06,East,90,3.9,4.2,72,0.00,,,0.00,WUHU216TE923,2013-07-13 21:15:00,
2013-07-13 17:20:00,76.1,67.0,30.05,NE,45,3.1,3.9,73,0.00,,,0.00,WUHU216TE923,2013-07-13 21:20:00,
2013-07-13 17:25:00,76.5,67.0,30.05,NNE,23,2.9,3.1,72,0.00,,,0.00,WUHU216TE923,2013-07-13 21:25:00,
2013-07-13 17:30:00,76.5,67.0,30.05,East,90,3.3,3.7,72,0.00,,,0.00,WUHU216TE923,2013-07-13 21:30:00,
2013-07-13 17:35:00,76.1,66.2,30.05,ENE,68,3.3,3.7,71,0.00,,,0.00,WUHU216TE923,2013-07-13 21:35:00,
2013-07-13 17:40:00,76.3,66.8,30.05,North,0,3.0,3.4,72,0.00,,,0.00,WUHU216TE923,2013-07-13 21:40:00,
2013-07-13 17:45:00,76.3,66.8,30.05,NE,45,3.0,3.4,72,0.00,,,0.00,WUHU216TE923,2013-07-13 21:45:00,
2013-07-13 17:50:00,76.5,66.6,30.05,NNE,23,3.1,5.0,71,0.00,,,0.00,WUHU216TE923,2013-07-13 21:50:00,
2013-07-13 17:55:00,76.5,67.0,30.05,NNE,23,2.8,5.0,72,0.00,,,0.00,WUHU216TE923,2013-07-13 21:55:00,
2013-07-13 18:00:00,76.3,66.8,30.06,NNE,23,2.6,2.8,72,0.00,,,0.00,WUHU216TE923,2013-07-13 22:00:00,
2013-07-13 18:05:00,76.5,67.8,30.06,ENE,68,2.3,2.6,74,0.00,,,0.00,WUHU216TE923,2013-07-13 22:05:00,
2013-07-13 18:10:00,76.5,67.8,30.06,NE,45,1.6,2.3,74,0.00,,,0.00,WUHU216TE923,2013-07-13 22:10:00,
2013-07-13 18:15:00,76.6,67.5,30.06,East,90,1.8,2.2,73,0.00,,,0.00,WUHU216TE923,2013-07-13 22:15:00,
2013-07-13 18:20:00,76.6,67.1,30.06,NNE,23,2.5,2.5,72,0.00,,,0.00,WUHU216TE923,2013-07-13 22:20:00,
2013-07-13 18:25:00,76.6,67.5,30.06,NNE,23,2.4,3.5,73,0.00,,,0.00,WUHU216TE923,2013-07-13 22:25:00,
2013-07-13 18:30:00,76.8,67.7,30.06,NE,45,2.7,3.5,73,0.00,,,0.00,WUHU216TE923,2013-07-13 22:30:00,
2013-07-13 18:35:00,76.8,67.7,30.06,ESE,113,2.7,3.3,73,0.00,,,0.00,WUHU216TE923,2013-07-13 22:35:00,
2013-07-13 18:40:00,76.6,67.5,30.06,NNE,23,2.0,3.1,73,0.00,,,0.00,WUHU216TE923,2013-07-13 22:40:00,
2013-07-13 18:45:00,76.8,67.7,30.06,NE,45,2.1,2.1,73,0.00,,,0.00,WUHU216TE923,2013-07-13 22:45:00,
2013-07-13 18:50:00,76.6,67.9,30.06,ENE,68,1.8,2.5,74,0.00,,,0.00,WUHU216TE923,2013-07-13 22:50:00,
2013-07-13 18:55:00,76.5,67.8,30.06,NNE,23,2.2,6.0,74,0.00,,,0.00,WUHU216TE923,2013-07-13 22:55:00,
2013-07-13 19:00:00,76.5,67.4,30.05,NNE,23,2.3,6.0,73,0.00,,,0.00,WUHU216TE923,2013-07-13 23:00:00,
2013-07-13 19:05:00,76.5,67.4,30.05,ESE,113,2.1,2.3,73,0.00,,,0.00,WUHU216TE923,2013-07-13 23:05:00,
2013-07-13 19:10:00,76.5,67.4,30.05,NE,45,1.8,2.7,73,0.00,,,0.00,WUHU216TE923,2013-07-13 23:10:00,
2013-07-13 19:15:00,76.5,67.0,30.05,NNE,23,1.9,2.7,72,0.00,,,0.00,WUHU216TE923,2013-07-13 23:15:00,
2013-07-13 19:20:00,76.5,67.4,30.06,SSE,158,1.7,2.0,73,0.00,,,0.00,WUHU216TE923,2013-07-13 23:20:00,
2013-07-13 19:25:00,76.3,67.2,30.06,ENE,68,1.6,2.0,73,0.00,,,0.00,WUHU216TE923,2013-07-13 23:25:00,
2013-07-13 19:30:00,76.3,66.8,30.06,NNE,23,2.1,3.2,72,0.00,,,0.00,WUHU216TE923,2013-07-13 23:30:00,
2013-07-13 19:35:00,76.5,67.0,30.06,NNE,23,2.2,3.2,72,0.00,,,0.00,WUHU216TE923,2013-07-13 23:35:00,
2013-07-13 19:40:00,76.1,67.0,30.07,NNE,23,1.9,2.2,73,0.00,,,0.00,WUHU216TE923,2013-07-13 23:40:00,
2013-07-13 19:45:00,75.9,66.8,30.07,NE,45,1.2,1.9,73,0.00,,,0.00,WUHU216TE923,2013-07-13 23:45:00,
2013-07-13 19:50:00,75.9,66.8,30.07,NNE,23,0.9,1.2,73,0.00,,,0.00,WUHU216TE923,2013-07-13 23:50:00,
2013-07-13 19:55:00,75.7,67.0,30.07,NNE,23,0.9,1.3,74,0.00,,,0.00,WUHU216TE923,2013-07-13 23:55:00,
2013-07-13 20:00:00,75.6,67.3,30.07,NNE,23,0.7,1.3,75,0.00,,,0.00,WUHU216TE923,2013-07-14 00:00:00,
2013-07-13 20:05:00,75.6,67.3,30.07,NNE,23,0.4,0.7,75,0.00,,,0.00,WUHU216TE923,2013-07-14 00:05:00,
2013-07-13 20:10:00,75.2,66.9,30.07,NNE,23,0.0,0.4,75,0.00,,,0.00,WUHU216TE923,2013-07-14 00:10:00,
2013-07-13 20:15:00,75.4,67.5,30.07,NNE,23,0.0,0.0,76,0.00,,,0.00,WUHU216TE923,2013-07-14 00:15:00,
2013-07-13 20:20:00,75.4,67.5,30.07,NNE,23,0.0,0.0,76,0.00,,,0.00,WUHU216TE923,2013-07-14 00:20:00,
2013-07-13 20:25:00,75.2,67.3,30.07,NNE,23,0.0,0.0,76,0.00,,,0.00,WUHU216TE923,2013-07-14 00:25:00,
2013-07-13 20:30:00,75.4,67.5,30.07,NNE,23,0.0,0.0,76,0.00,,,0.00,WUHU216TE923,2013-07-14 00:30:00,
2013-07-13 20:35:00,75.2,67.6,30.07,NNE,23,0.0,0.0,77,0.00,,,0.00,WUHU216TE923,2013-07-14 00:35:00,
2013-07-13 20:40:00,75.0,67.8,30.06,NNE,23,0.1,0.1,78,0.00,,,0.00,WUHU216TE923,2013-07-14 00:40:00,
2013-07-13 20:45:00,74.8,67.6,30.06,NNE,23,0.1,0.1,78,0.00,,,0.00,WUHU216TE923,2013-07-14 00:45:00,
2013-07-13 20:50:00,75.0,68.2,30.06,NNE,23,0.0,0.1,79,0.00,,,0.00,WUHU216TE923,2013-07-14 00:50:00,
2013-07-13 20:55:00,75.0,68.2,30.06,NNE,23,0.0,0.0,79,0.00,,,0.00,WUHU216TE923,2013-07-14 00:55:00,
2013-07-13 21:00:00,74.7,68.2,30.07,NNE,23,0.7,1.6,80,0.00,,,0.00,WUHU216TE923,2013-07-14 01:00:00,
2013-07-13 21:05:00,74.5,67.7,30.07,NNE,23,1.2,1.6,79,0.00,,,0.00,WUHU216TE923,2013-07-14 01:05:00,
2013-07-13 21:10:00,74.7,68.2,30.07,NNE,23,0.7,1.4,80,0.00,,,0.00,WUHU216TE923,2013-07-14 01:10:00,
2013-07-13 21:15:00,74.5,68.0,30.07,NNE,23,0.2,0.7,80,0.00,,,0.00,WUHU216TE923,2013-07-14 01:15:00,
2013-07-13 21:20:00,74.3,67.8,30.09,NNE,23,0.0,0.2,80,0.00,,,0.00,WUHU216TE923,2013-07-14 01:20:00,
2013-07-13 21:25:00,74.3,67.8,30.09,NNE,23,0.0,0.0,80,0.00,,,0.00,WUHU216TE923,2013-07-14 01:25:00,
2013-07-13 21:30:00,74.3,68.2,30.09,NNE,23,0.0,0.0,81,0.00,,,0.00,WUHU216TE923,2013-07-14 01:30:00,
2013-07-13 21:35:00,73.9,67.8,30.09,NNE,23,0.0,0.0,81,0.00,,,0.00,WUHU216TE923,2013-07-14 01:35:00,
2013-07-13 21:40:00,73.9,67.8,30.09,NNE,23,0.0,0.0,81,0.00,,,0.00,WUHU216TE923,2013-07-14 01:40:00,
2013-07-13 21:45:00,73.8,67.7,30.09,NNE,23,0.0,0.0,81,0.00,,,0.00,WUHU216TE923,2013-07-14 01:45:00,
2013-07-13 21:50:00,73.8,68.0,30.09,NNE,23,0.0,0.0,82,0.00,,,0.00,WUHU216TE923,2013-07-14 01:50:00,
2013-07-13 21:55:00,73.6,67.8,30.09,NNE,23,0.0,0.0,82,0.00,,,0.00,WUHU216TE923,2013-07-14 01:55:00,
2013-07-13 22:00:00,73.4,67.6,30.09,NNE,23,0.0,1.0,82,0.00,,,0.00,WUHU216TE923,2013-07-14 02:00:00,
2013-07-13 22:05:00,73.6,67.8,30.09,NNE,23,0.0,1.0,82,0.00,,,0.00,WUHU216TE923,2013-07-14 02:05:00,
2013-07-13 22:10:00,73.2,67.4,30.09,NNE,23,0.9,1.8,82,0.00,,,0.00,WUHU216TE923,2013-07-14 02:10:00,
2013-07-13 22:15:00,73.0,67.2,30.09,NNE,23,0.9,1.8,82,0.00,,,0.00,WUHU216TE923,2013-07-14 02:15:00,
2013-07-13 22:20:00,73.0,67.2,30.09,NNE,23,0.2,0.9,82,0.00,,,0.00,WUHU216TE923,2013-07-14 02:20:00,
2013-07-13 22:25:00,72.9,67.1,30.09,NNE,23,0.0,0.2,82,0.00,,,0.00,WUHU216TE923,2013-07-14 02:25:00,
2013-07-13 22:30:00,72.9,67.1,30.09,NNE,23,0.0,0.0,82,0.00,,,0.00,WUHU216TE923,2013-07-14 02:30:00,
2013-07-13 22:35:00,72.9,67.1,30.09,NNE,23,0.0,0.0,82,0.00,,,0.00,WUHU216TE923,2013-07-14 02:35:00,
2013-07-13 22:40:00,72.7,67.3,30.09,NNE,23,0.0,0.0,83,0.00,,,0.00,WUHU216TE923,2013-07-14 02:40:00,
2013-07-13 22:45:00,72.7,67.3,30.09,NNE,23,0.0,0.0,83,0.00,,,0.00,WUHU216TE923,2013-07-14 02:45:00,
2013-07-13 22:50:00,72.5,67.1,30.09,NNE,23,0.4,1.4,83,0.00,,,0.00,WUHU216TE923,2013-07-14 02:50:00,
2013-07-13 22:55:00,72.5,67.1,30.09,NNE,23,0.9,1.5,83,0.00,,,0.00,WUHU216TE923,2013-07-14 02:55:00,
2013-07-13 23:00:00,72.1,66.7,30.09,NNE,23,1.1,1.5,83,0.00,,,0.00,WUHU216TE923,2013-07-14 03:00:00,
2013-07-13 23:05:00,72.1,66.7,30.09,NNE,23,0.6,1.1,83,0.00,,,0.00,WUHU216TE923,2013-07-14 03:05:00,
2013-07-13 23:10:00,71.8,66.4,30.09,NNE,23,0.0,0.6,83,0.00,,,0.00,WUHU216TE923,2013-07-14 03:10:00,
2013-07-13 23:15:00,71.8,66.7,30.09,NNE,23,0.0,0.0,84,0.00,,,0.00,WUHU216TE923,2013-07-14 03:15:00,
2013-07-13 23:20:00,71.8,66.7,30.09,NNE,23,0.0,0.0,84,0.00,,,0.00,WUHU216TE923,2013-07-14 03:20:00,
2013-07-13 23:25:00,71.8,66.7,30.09,NNE,23,0.0,0.0,84,0.00,,,0.00,WUHU216TE923,2013-07-14 03:25:00,
2013-07-13 23:30:00,71.8,66.7,30.09,NNE,23,0.0,0.0,84,0.00,,,0.00,WUHU216TE923,2013-07-14 03:30:00,
2013-07-13 23:35:00,71.8,66.7,30.09,NNE,23,0.1,1.0,84,0.00,,,0.00,WUHU216TE923,2013-07-14 03:35:00,
2013-07-13 23:40:00,71.6,66.5,30.08,NNE,23,0.3,1.0,84,0.00,,,0.00,WUHU216TE923,2013-07-14 03:40:00,
2013-07-13 23:45:00,71.4,66.4,30.08,NNE,23,0.3,0.3,84,0.00,,,0.00,WUHU216TE923,2013-07-14 03:45:00,
2013-07-13 23:50:00,71.4,66.4,30.08,NNE,23,0.1,0.3,84,0.00,,,0.00,WUHU216TE923,2013-07-14 03:50:00,
2013-07-13 23:55:00,71.4,66.4,30.08,NNE,23,0.0,0.1,84,0.00,,,0.00,WUHU216TE923,2013-07-14 03:55:00,